Location: Edmonton
(53.5500°N, 113.5000°W)
Time: 17:30:04
(UTC-07:00)

N. Korean satellite - Pass Details

Date: 29 October 2019
Orbit: 456 x 506 km, 97.2° (Epoch: 12 November)

Event Time Altitude Azimuth Distance (km) Brightness Sun altitude
Rises 19:44:42 0° 213° (SSW) 2,488 10.7 -14.9°
Reaches altitude 10° 19:47:36 10° 241° (WSW) 1,629 10.2 -15.4°
Maximum altitude 19:49:25 14° 272° (W) 1,434 10.2 -15.6°
Drops below altitude 10° 19:51:15 10° 303° (WNW) 1,650 10.1 -15.9°
Sets 19:54:14 0° 331° (NNW) 2,549 10.6 -16.3°
